This is the latest recevied weather packets stored in our database for station/object KC8YYF. If no packets are shown the sender has not sent any weather packets the latest 10 day(s).
| Time | Temp. | Humidity | Pressure | Rain* | Wind** | Luminosity | Snow |
|---|---|---|---|---|---|---|---|
| 1777908154 | 18.33° C | 55% | 1010.1 hPa | 0 mm | - | 591 W/m² | - |
| 1777907850 | 18.33° C | 55% | 1010.2 hPa | 0 mm | - | 446 W/m² | - |
| 1777907546 | 18.33° C | 55% | 1010.3 hPa | 0 mm | - | 467 W/m² | - |
| 1777907242 | 17.78° C | 55% | 1010.4 hPa | 0 mm | - | 565 W/m² | - |
| 1777906939 | 17.78° C | 54% | 1010.4 hPa | 0 mm | - | 487 W/m² | - |
| 1777906637 | 17.78° C | 53% | 1010.6 hPa | 0 mm | - | 532 W/m² | - |
| 1777906332 | 18.33° C | 54% | 1010.6 hPa | 0 mm | - | 478 W/m² | - |
| 1777906029 | 18.33° C | 55% | 1010.8 hPa | 0 mm | - | 526 W/m² | - |
| 1777905726 | 17.78° C | 57% | 1010.9 hPa | 0 mm | - | 481 W/m² | - |
| 1777905423 | 17.78° C | 54% | 1010.6 hPa | 0 mm | - | 527 W/m² | - |
| 1777905121 | 17.78° C | 54% | 1010.6 hPa | 0 mm | - | 450 W/m² | - |
| 1777904817 | 16.67° C | 55% | 1010.8 hPa | 0 mm | - | 389 W/m² | - |
| 1777904514 | 17.22° C | 56% | 1010.8 hPa | 0 mm | - | 478 W/m² | - |
| 1777904211 | 17.22° C | 57% | 1010.8 hPa | 0 mm | - | 465 W/m² | - |
| 1777903908 | 17.22° C | 57% | 1011 hPa | 0 mm | - | 411 W/m² | - |
| 1777903605 | 16.67° C | 57% | 1010.7 hPa | 0 mm | - | 423 W/m² | - |
| 1777903300 | 16.67° C | 55% | 1011 hPa | 0 mm | - | 466 W/m² | - |
| 1777902998 | 16.67° C | 57% | 1011.2 hPa | 0 mm | - | 416 W/m² | - |
| 1777902694 | 16.11° C | 58% | 1011.2 hPa | 0 mm | - | 412 W/m² | - |
| 1777902392 | 16.67° C | 57% | 1011 hPa | 0 mm | - | 388 W/m² | - |
| 1777902088 | 16.67° C | 59% | 1011.3 hPa | 0 mm | - | 391 W/m² | - |
| 1777901787 | 16.11° C | 57% | 1011.4 hPa | 0 mm | - | 373 W/m² | - |
| 1777901483 | 15° C | 58% | 1011.3 hPa | 0 mm | - | 323 W/m² | - |
| 1777901181 | 14.44° C | 63% | 1011.3 hPa | 0 mm | - | 323 W/m² | - |
| 1777900878 | 15.56° C | 58% | 1011.4 hPa | 0 mm | - | 336 W/m² | - |
* Rain latest hour (hover to see other rain measurements)
** Current wind speed in m/s (hover to see current wind gust speed)